PZY97K LIML-LIRF

Flight info

Callsign PZY97K
Flight time N/A
Altitude 33000
Route EKPAL DCT TINKU DCT XIBIL
Aircraft B738/M-SDE2E3FGHIRWXY/LB1

Departure

Time 2026-05-04 16:23
Airport Milano Linate Airport (LIML)

Arrival

Time N/A
Airport Rome–Fiumicino Leonardo da Vinci International Airport (LIRF)
Time Latitude Longitude Altitude Speed Heading
2026-05-04 15:52 45.45595 9.27894 359 ft 0 kts 90°
2026-05-04 16:19 45.45595 9.27895 359 ft 2 kts 90°
2026-05-04 16:19 45.45508 9.27984 360 ft 11 kts 178°
2026-05-04 16:20 45.45127 9.27872 359 ft 22 kts 173°
2026-05-04 16:20 45.44829 9.27942 359 ft 21 kts 172°
2026-05-04 16:21 45.44222 9.28008 362 ft 35 kts 175°
2026-05-04 16:22 45.43772 9.28055 361 ft 30 kts 175°
2026-05-04 16:22 45.43534 9.27815 362 ft 23 kts 355°
2026-05-04 16:23 45.46050 9.27612 992 ft 173 kts 356°
2026-05-04 16:24 45.48528 9.33053 3225 ft 243 kts 130°
2026-05-04 16:25 45.45605 9.35507 4398 ft 256 kts 158°
2026-05-04 16:26 45.38884 9.40040 7136 ft 266 kts 154°
2026-05-04 16:26 45.33839 9.43637 9023 ft 271 kts 153°
2026-05-04 16:27 45.30576 9.46353 10288 ft 274 kts 151°
2026-05-04 16:28 45.27578 9.49052 10545 ft 303 kts 149°
2026-05-04 16:28 45.22322 9.54434 10810 ft 338 kts 147°
2026-05-04 16:29 45.13300 9.57138 11863 ft 347 kts 151°
2026-05-04 16:30 45.07057 9.62523 12620 ft 353 kts 155°
2026-05-04 16:31 45.02566 9.65458 13116 ft 357 kts 158°
2026-05-04 16:31 44.95712 9.69814 13837 ft 364 kts 158°